This demonstration page uses our WeatherBlox Daily Observations layout. Learn more.

Left ArrowRight Arrow

39.12711, -84.51439

Hourly Observations for November 22, 2020

Temp ( °F °C ) Dew Point ( °F °C ) Humidity (%) Winds ( mph kmh ) Pressure ( in mb ) Visibility ( mi km ) Precip ( " mm )
12:28 am 00:28 Cloudy 47 8.3 43 6.1 86 86 NE 7 11 30.31 1026 9 14 0.00 0.00
12:53 am 00:53 Cloudy 48 8.9 43 6.1 83 83 NE 6 9 30.30 1026 10 16 0.00 0.00
1:53 am 01:53 Cloudy 47 8.3 43 6.1 86 86 NE 6 9 30.27 1025 10 16 0.00 0.00
2:53 am 02:53 Cloudy 47 8.3 43 6.1 86 86 NE 5 7 30.25 1024 10 16 0.00 0.00
3:21 am 03:21 Cloudy 47 8.3 43 6.1 86 86 ENE 6 9 30.24 1024 10 16 0.00 0.00
3:53 am 03:53 Cloudy 48 8.9 43 6.1 83 83 ENE 7 11 30.22 1023 10 16 0.00 0.00
4:53 am 04:53 Cloudy 47 8.3 43 6.1 86 86 ENE 7 11 30.20 1023 9 14 0.00 0.00
5:53 am 05:53 Cloudy 47 8.3 43 6.1 86 86 ENE 5 7 30.20 1023 8 13 0.00 0.00
6:39 am 06:39 Cloudy 47 8.3 44 6.7 90 90 ENE 7 11 30.19 1022 7 11 0.00 0.00
6:53 am 06:53 Cloudy 47 8.3 44 6.7 90 90 ENE 8 13 30.18 1022 7 11 0.00 0.00
7:53 am 07:53 Cloudy with Mist and Fog 47 8.3 44 6.7 90 90 NE 8 13 30.15 1021 4 6 0.00 0.00
8:53 am 08:53 Cloudy with Mist and Fog 46 7.8 45 7.2 96 96 NE 7 11 30.14 1021 2 3 0.00 0.00
9:50 am 09:50 Cloudy with Light Rain 46 8 45 7 93 93 NE 7 11 30.11 1020 2 2 0.00 0.00
9:53 am 09:53 Cloudy with Light Rain 46 7.8 45 7.2 96 96 NE 9 15 30.10 1019 2 2 0.00 0.00
10:53 am 10:53 Cloudy with Light Rain 46 7.8 45 7.2 96 96 NE 7 11 30.06 1018 2 3 0.07 1.78
11:53 am 11:53 Cloudy with Light Rain 49 9.4 47 8.3 93 93 NW 3 6 30.02 1017 2 2 0.06 1.52
12:53 pm 12:53 Cloudy with Light Rain 54 12.2 52 11.1 93 93 SSW 12 19 29.98 1015 2 2 0.03 0.76
1:53 pm 13:53 Cloudy with Mist and Fog 56 13.3 53 11.7 90 90 SSW 12 19 29.97 1015 2 3 0.01 0.25
2:53 pm 14:53 Cloudy with Light Rain 56 13.3 53 11.7 90 90 SW 10 17 29.97 1015 2 3 0.00 0.00
3:53 pm 15:53 Cloudy with Light Rain 50 10 48 8.9 93 93 WNW 10 17 30.02 1017 2 3 0.02 0.51
4:53 pm 16:53 Cloudy with Mist and Fog 45 7.2 42 5.6 90 90 NNW 15 24 30.07 1018 2 3 0.00 0.00
5:00 pm 17:00 Cloudy 45 7.2 42 5.6 90 90 NW 14 22 30.08 1019 10 16 0.00 0.00
5:53 pm 17:53 Cloudy 42 5.6 39 3.9 89 89 NW 10 17 30.11 1020 10 16 0.00 0.00
6:53 pm 18:53 Cloudy 42 5.6 38 3.3 85 85 NW 5 7 30.15 1021 8 13 0.00 0.00
7:53 pm 19:53 Cloudy 41 5 36 2.2 82 82 WNW 12 19 30.19 1023 10 16 0.00 0.00
8:53 pm 20:53 Cloudy 40 4.4 35 1.7 83 83 NNW 8 13 30.21 1023 10 16 0.00 0.00
9:53 pm 21:53 Cloudy 40 4.4 35 1.7 83 83 NNW 6 9 30.23 1024 10 16 0.00 0.00
10:53 pm 22:53 Cloudy 40 4.4 34 1.1 79 79 WNW 10 17 30.26 1025 10 16 0.00 0.00
11:53 pm 23:53 Cloudy 40 4.4 34 1.1 79 79 WNW 9 15 30.26 1025 10 16 0.00 0.00

Powered by AerisWeather